Location: Arthez
(43.0833°N, 0.2500°W)
Time: 22:17:25
(UTC+00:00)

deb Kosmos-970 - Pass Details

Date: 17 August 2022
Orbit: 900 x 1112 km, 65.8° (Epoch: 28 September)

Event Time Altitude Azimuth Distance (km) Brightness Sun altitude
Rises 22:15:37 0° 329° (NNW) 3,947 ? -28.4°
Reaches altitude 10° 22:19:08 10° 345° (NNW) 2,981 ? -28.7°
Maximum altitude 22:24:19 21° 32° (NNE) 2,240 ? -29.2°
Enters shadow 22:28:22 13° 73° (ENE) 2,684 ? -29.5°
